Weather Roundup
Issued by NWS Corpus Christi, TX

Home | Current Version | Previous Version | Text Only | Print | Product List | Glossary On
Versions: 1 2 3 4 5 6 7 8 9 10 11 12 13 14 15 16 17 18 19 20 21 22 23 24 25 26 27 28 29 30 31 32 33 34 35 36 37 38 39 40 41 42 43 44 45 46 47 48 49 50
000
ASUS44 KCRP 280510
HRRCRP

SOUTH TEXAS REGIONAL WEATHER ROUNDUP
NATIONAL WEATHER SERVICE CORPUS CHRISTI TX
1100 PM CST SAT DEC 27 2014


TXZ229>244-280600-
...CORPUS CHRISTI AREA OBSERVATIONS...

CITY           SKY/WX    TMP DP  RH WIND       PRES   REMARKS
CORPUS CHRISTI MOCLDY    49  45  86 N16       30.17F
NAS CORPUS CHR TSTM      50  47  89 N20G30    30.17F
ROCKPORT       CLOUDY    49  44  83 N14       30.17F
KINGSVILLE NAS MOCLDY    51  46  83 N17G24    30.18R
ALICE          CLOUDY    50  44  80 N15       30.19F
FALFURRIAS     CLOUDY    51  45  79 N10G16    30.19S
$$

...VICTORIA AREA OBSERVATIONS...

CITY           SKY/WX    TMP DP  RH WIND       PRES   REMARKS
VICTORIA       CLOUDY    48  42  80 N9G17     30.22R
BEEVILLE       MOCLDY    48  42  77 N10       30.20F
PLEASANTON     CLOUDY    48  37  65 NW7       30.28R
SAN ANTONIO    CLOUDY    46  34  62 N12G17    30.24R
$$

...LAREDO AREA OBSERVATIONS...

CITY           SKY/WX    TMP DP  RH WIND       PRES   REMARKS
LAREDO         NOT AVBL
COTULLA        CLOUDY   N/A N/A N/A NE8       30.21F
DEL RIO        CLOUDY    46  31  55 N9        30.30F
MCALLEN        LGT RAIN  52  50  93 N9G21     30.23R
HEBBRONVILLE   LGT RAIN  48  46  91 N13       30.21R
$$

...OTHER TEXAS OBSERVATIONS...

CITY           SKY/WX    TMP DP  RH WIND       PRES   REMARKS
BROWNSVILLE    CLOUDY    54  50  86 N14G22    30.15R
HOUSTON        CLOUDY    46  43  89 N15       30.18S
COL. STATION   CLOUDY    42  36  79 N15       30.24F
AUSTIN         CLOUDY    43  34  70 N22       30.23F
WACO           CLOUDY    37  28  70 N13G23    30.32R WCI  29
FORT WORTH     CLOUDY    35  25  66 N13       30.31R WCI  26
WICHITA FALLS  PTCLDY    31  23  72 NW5       30.34R
LUBBOCK        PTCLDY    26  20  77 CALM      30.26F
EL PASO        PTCLDY    35  31  85 S6        30.27R
$$

...MARINE OBSERVATIONS...

STATION/POSITION TIME  SKY/WX   TEMP    WIND        PRES    VSBY  WAVE   SWELL
                                AIR SEA DIR/SP/G                  HT/PER HT/PER
                 (UTC)          (F)     (DEG/KT/KT) (MB)    (MI)  (FT/S) (FT/S)
PORT ARANSAS     0500            50 62  350/ 14/ 17 1022.4R
BUOY 90 E PORT A 0500            58 72  360/ 19/ 23 1019.4R         6/ 6
BUOY 45 SE BAFFI 0500            58 71  360/ 23/ 29 1019.5R         8/ 6
BUOY 200 E PT IS 0500            73 73  170/  4/  6 1018.2R         4/ 7   3/ 7
BUOY 15 E GALVES 0500            53 61  340/ 21/ 25 1019.1R         4/ 4   2/ 7
$$



USA.gov is the U.S. government's official web portal to all federal, state and local government web resources and services.